{"data":{"norad_id":44886,"epoch":"2026-09-20T05:28:03.621216Z","epoch_age_seconds":85272,"freshness":"FRESH","line1":"1 44886U 19093H   26263.22781969  .00000600  00000+0  59394-4 0  9994","line2":"2 44886  97.7978 350.9114 0012884 106.1476 254.1164 14.95525092366381","mean_motion":14.95525092,"eccentricity":0.0012884,"inclination_deg":97.7978,"raan_deg":350.9114,"arg_perigee_deg":106.1476,"mean_anomaly_deg":254.1164,"bstar":5.9394e-5,"rev_number":36638,"period_min":96.287251060044,"perigee_km":571.77757013744,"apogee_km":589.7092131306,"semimajor_km":6958.880391634,"source":"CELESTRAK","updated_at":"2026-09-20T09:00:14.572298Z"}}